TimeEDT,TemperatureF,Dew PointF,Humidity,Sea Level PressureIn,VisibilityMPH,Wind Direction,Wind SpeedMPH,Gust SpeedMPH,PrecipitationIn,Events,Conditions,WindDirDegrees,DateUTC
12:21 AM,69.8,66.2,88,29.85,10.0,WNW,4.6,-,N/A,,Scattered Clouds,290,2012-10-19 04:21:00
12:45 AM,69.8,66.2,88,29.85,10.0,NW,5.8,-,N/A,,Mostly Cloudy,310,2012-10-19 04:45:00
12:53 AM,69.1,66.9,93,29.85,10.0,NW,4.6,-,N/A,,Mostly Cloudy,320,2012-10-19 04:53:00
1:15 AM,69.8,66.2,88,29.85,10.0,WNW,3.5,-,N/A,,Overcast,300,2012-10-19 05:15:00
1:44 AM,69.8,66.2,88,29.85,10.0,Calm,Calm,-,N/A,,Mostly Cloudy,0,2012-10-19 05:44:00
1:53 AM,69.1,66.9,93,29.85,10.0,Calm,Calm,-,N/A,,Overcast,0,2012-10-19 05:53:00
2:53 AM,68.0,66.0,93,29.85,10.0,WNW,4.6,-,N/A,,Partly Cloudy,300,2012-10-19 06:53:00
3:21 AM,68.0,66.2,94,29.85,10.0,NW,5.8,-,N/A,,Scattered Clouds,310,2012-10-19 07:21:00
3:38 AM,68.0,66.2,94,29.85,10.0,WNW,3.5,-,N/A,,Mostly Cloudy,300,2012-10-19 07:38:00
3:48 AM,68.0,66.2,94,29.85,10.0,WNW,3.5,-,N/A,,Mostly Cloudy,290,2012-10-19 07:48:00
3:53 AM,68.0,66.0,93,29.85,10.0,WNW,4.6,-,N/A,,Overcast,300,2012-10-19 07:53:00
4:33 AM,68.0,66.2,94,29.84,10.0,NW,4.6,-,N/A,,Overcast,310,2012-10-19 08:33:00
4:53 AM,66.9,64.9,93,29.84,10.0,WNW,4.6,-,N/A,,Mostly Cloudy,300,2012-10-19 08:53:00
5:53 AM,66.0,62.1,87,29.85,10.0,NW,3.5,-,N/A,,Partly Cloudy,320,2012-10-19 09:53:00
6:53 AM,64.0,60.1,87,29.87,10.0,Calm,Calm,-,N/A,,Partly Cloudy,0,2012-10-19 10:53:00
7:53 AM,61.0,59.0,93,29.88,10.0,Calm,Calm,-,N/A,Fog,Patches of Fog,0,2012-10-19 11:53:00
8:53 AM,64.9,57.0,75,29.90,10.0,NNW,3.5,-,N/A,,Partly Cloudy,340,2012-10-19 12:53:00
9:53 AM,68.0,53.1,59,29.91,10.0,Variable,3.5,-,N/A,,Clear,0,2012-10-19 13:53:00
10:53 AM,72.0,45.0,38,29.93,10.0,NNE,9.2,-,N/A,,Clear,30,2012-10-19 14:53:00
11:53 AM,75.0,45.0,34,29.92,10.0,NNW,6.9,-,N/A,,Clear,340,2012-10-19 15:53:00
12:53 PM,77.0,41.0,28,29.91,10.0,North,5.8,-,N/A,,Clear,360,2012-10-19 16:53:00
1:53 PM,78.1,37.9,24,29.88,10.0,North,4.6,-,N/A,,Clear,360,2012-10-19 17:53:00
2:53 PM,80.1,35.1,20,29.85,10.0,NNW,8.1,-,N/A,,Clear,330,2012-10-19 18:53:00
3:53 PM,80.1,35.1,20,29.83,10.0,NNW,4.6,-,N/A,,Clear,340,2012-10-19 19:53:00
4:53 PM,80.1,36.0,20,29.83,10.0,NW,6.9,-,N/A,,Partly Cloudy,320,2012-10-19 20:53:00
5:53 PM,79.0,37.0,22,29.83,10.0,West,4.6,-,N/A,,Clear,280,2012-10-19 21:53:00
6:53 PM,73.0,46.0,38,29.83,10.0,Calm,Calm,-,N/A,,Clear,0,2012-10-19 22:53:00
7:53 PM,63.0,52.0,67,29.84,10.0,Calm,Calm,-,N/A,,Clear,0,2012-10-19 23:53:00
8:53 PM,62.1,50.0,65,29.86,10.0,Calm,Calm,-,N/A,,Clear,0,2012-10-20 00:53:00
9:53 PM,59.0,50.0,72,29.88,10.0,Calm,Calm,-,N/A,,Clear,0,2012-10-20 01:53:00
10:53 PM,60.1,48.0,64,29.90,10.0,NW,3.5,-,N/A,,Clear,310,2012-10-20 02:53:00
11:53 PM,59.0,46.9,64,29.90,10.0,Calm,Calm,-,N/A,,Clear,0,2012-10-20 03:53:00